Wind_Speed
6 6 6 6 5 3 3 2 3 4 5 6 6 6 6 6 6 5 4 4 4 3 1 0 1 1 2 4 3 2 3 4 3 3 4 3 4 7 8 8 7 7 7 7 7 7 7 6 6 6 5 5 4 5 6 6 7 6 3 1 4 3 3 3 4 4 2 3 3 2 3 5 4 4 6 7 10 14 15 18 19 20 22 24 24 24 24 22
6 5 5 5 5 4 3 3 3 4 5 5 6 6 7 7 7 6 6 5 5 4 2 1 0 0 2 4 5 4 4 4 4 4 5 4 5 8 8 8 7 7 6 6 5 5 6 6 6 6 6 5 3 5 6 6 8 5 2 1 4 4 4 4 4 4 2 4 5 5 4 6 7 4 3 5 7 8 10 15 17 20 23 23 25 26 26 26
6 5 4 5 5 5 4 4 4 4 4 5 6 7 8 8 9 8 7 7 6 5 4 3 1 1 3 5 6 5 4 5 6 5 4 4 7 9 9 8 8 7 6 5 4 4 5 6 6 6 7 6 4 5 4 5 6 5 3 2 5 4 4 6 7 8 8 8 8 7 5 6 9 7 4 4 7 7 8 13 12 17 22 20 22 23 25 27
6 5 5 6 6 6 6 5 5 5 5 6 7 7 8 9 9 10 9 8 7 6 5 4 2 2 3 5 6 5 4 6 5 3 3 4 8 9 9 9 8 8 7 5 4 3 4 4 5 6 7 5 4 4 4 6 6 4 5 4 4 3 3 7 8 10 10 9 8 6 4 7 11 9 9 6 5 7 13 19 18 20 23 20 20 21 22 24
5 5 6 7 8 8 8 7 7 6 6 7 7 8 9 9 9 10 10 10 9 8 7 5 3 4 4 5 5 4 2 4 0 1 3 6 8 8 8 9 8 7 6 5 3 1 3 5 5 5 5 3 3 4 4 9 7 3 5 8 6 4 3 8 8 8 8 7 7 6 4 7 9 9 14 12 6 12 21 24 23 22 22 20 20 20 20 22
5 5 6 8 9 10 10 9 8 7 7 8 8 9 9 9 9 9 9 10 10 10 9 6 5 4 4 4 5 4 2 1 1 1 6 8 8 8 8 9 8 7 6 5 3 0 3 6 6 5 4 2 3 4 3 7 8 3 5 7 9 7 6 9 9 9 9 8 7 6 6 9 7 8 14 17 18 28 33 28 26 25 23 22 22 21 22 22
5 6 7 9 11 12 11 10 9 7 7 7 8 10 9 9 9 8 9 9 10 10 9 8 6 5 4 3 4 5 6 5 4 6 8 8 9 7 7 8 8 7 6 5 3 1 2 5 6 5 3 1 3 5 3 4 7 5 4 4 7 9 10 12 12 12 12 11 12 9 8 10 10 9 9 17 30 37 35 31 30 30 28 26 25 25 24 23
6 6 8 10 11 12 10 9 9 8 7 6 7 9 9 8 8 8 8 8 9 9 9 8 6 5 4 4 5 6 8 9 7 7 8 8 9 7 7 8 8 7 6 5 3 2 1 3 6 5 3 2 3 4 3 3 4 5 5 5 5 8 10 12 13 15 15 14 15 11 10 15 16 10 10 25 41 41 36 34 33 33 33 32 32 31 29 27
6 7 9 10 11 9 8 8 8 7 6 5 5 6 7 8 7 7 8 9 9 9 8 8 7 6 4 4 5 4 6 6 5 7 8 8 8 7 7 7 7 8 7 4 3 2 2 2 4 4 3 4 4 3 3 2 3 5 5 6 6 9 11 12 13 13 12 13 11 8 11 15 13 8 15 34 38 31 28 27 26 27 30 30 32 33 32 32
6 8 9 10 8 7 7 7 5 5 4 2 2 3 5 6 6 7 7 8 9 8 8 7 7 5 4 5 5 2 3 2 3 7 8 7 7 7 7 7 7 7 7 5 3 3 3 3 3 3 4 3 3 3 3 4 3 3 4 7 10 12 13 12 12 11 10 11 10 9 8 11 9 3 13 29 22 15 17 17 19 21 24 27 27 29 30 31
6 8 9 8 7 6 7 6 2 2 2 1 0 2 3 4 4 5 6 7 8 7 7 7 6 5 5 5 7 4 3 3 6 7 7 7 7 8 8 7 7 6 6 5 4 4 4 4 4 3 3 3 2 3 5 5 4 4 5 8 11 11 13 12 12 11 8 8 8 8 6 9 7 3 19 35 25 20 23 22 23 23 25 27 26 27 28 29
5 8 8 7 6 6 6 5 3 2 2 1 1 1 1 2 3 3 4 6 7 7 6 5 5 5 4 6 9 7 5 7 8 8 7 8 8 8 8 8 7 6 4 4 4 4 4 4 5 5 4 3 1 1 3 3 3 4 4 5 9 9 9 9 6 5 2 2 4 3 5 6 5 13 32 36 24 22 23 24 25 25 26 27 27 28 28 29
5 7 6 4 4 5 6 7 6 4 3 3 2 2 2 1 2 3 4 5 6 6 5 5 4 4 4 5 6 6 8 9 9 8 8 8 8 8 8 8 8 7 5 4 4 3 3 4 4 5 5 4 2 2 3 2 2 4 1 1 6 7 6 5 0 1 0 2 2 3 5 7 7 20 30 21 16 19 19 23 25 24 26 26 27 29 29 30
5 5 3 2 3 4 6 8 7 7 6 5 5 4 4 3 3 3 4 4 5 5 4 4 3 3 4 4 4 6 8 9 9 9 9 9 9 8 7 7 8 8 7 5 4 4 3 3 3 3 4 3 2 3 3 3 2 2 1 1 2 2 5 5 1 1 1 2 2 5 3 9 11 21 21 13 14 16 17 23 25 26 28 28 29 30 31 31
4 2 2 2 3 5 6 7 7 8 8 7 6 5 5 4 4 3 3 4 4 4 4 3 3 3 4 5 6 6 7 8 10 10 10 10 9 6 5 6 8 8 8 7 5 4 4 3 3 1 2 2 1 0 2 4 3 2 2 3 2 2 5 8 3 3 2 1 3 5 3 10 14 18 13 7 10 11 16 24 27 32 35 35 36 35 36 37
4 1 2 3 4 5 6 6 7 7 7 7 6 6 5 5 4 3 4 5 4 4 3 2 2 3 3 4 5 5 6 7 9 10 11 11 9 6 5 6 7 7 7 7 6 5 4 4 3 1 1 2 1 2 3 4 4 3 0 4 3 3 4 6 3 1 2 1 1 1 3 9 11 11 7 4 10 14 18 27 33 37 39 40 41 40 42 42
3 0 2 3 4 5 5 5 6 6 6 6 5 5 5 4 4 4 5 5 4 3 2 3 4 4 5 5 5 5 6 7 9 12 12 11 9 6 6 6 4 5 5 6 6 6 4 2 1 1 1 1 2 4 3 4 4 3 1 2 4 4 3 5 4 3 3 1 2 1 4 13 16 18 22 18 18 20 22 29 35 36 38 39 39 40 41 41
3 1 3 3 3 4 4 3 4 5 6 6 6 5 5 3 2 4 5 5 5 4 5 6 5 4 4 4 4 6 8 9 11 12 11 9 8 6 7 6 3 4 4 4 5 5 4 1 2 0 3 2 1 4 1 4 3 3 3 3 4 3 4 5 6 3 4 0 4 2 6 18 20 21 29 22 14 19 24 29 33 35 38 39 38 39 38 39
3 2 4 5 4 3 3 2 3 5 5 5 5 5 4 2 1 4 6 7 7 4 3 4 3 2 3 5 6 8 10 11 10 9 8 7 7 7 7 6 4 4 4 2 3 2 1 1 2 1 2 3 4 6 7 8 6 4 4 4 4 6 6 6 6 3 2 2 6 6 10 18 20 19 23 19 12 18 26 29 31 34 37 37 37 37 36 38
4 3 5 6 5 4 3 1 1 3 3 3 3 3 2 2 1 3 5 8 9 8 8 9 8 8 8 9 10 10 10 9 7 7 6 6 7 7 6 5 3 3 2 2 2 1 2 1 3 6 8 7 7 8 6 3 4 3 2 4 5 6 8 4 2 3 1 2 7 6 8 16 19 19 21 21 16 17 21 24 28 32 34 35 35 36 36 36
4 4 5 6 6 5 4 2 1 1 1 1 1 2 3 4 3 3 5 7 9 10 13 13 13 12 11 10 11 10 9 6 5 6 6 6 6 4 3 1 1 1 1 1 1 2 3 2 7 9 9 6 5 5 4 3 3 2 3 5 5 5 9 6 1 3 0 2 5 2 6 16 19 17 19 20 14 15 18 18 25 29 30 32 32 35 37 35
4 4 5 6 7 6 5 4 3 2 2 2 3 4 6 7 6 6 6 6 8 9 11 12 11 11 10 9 9 8 7 4 4 4 4 5 5 3 2 1 3 2 2 2 0 4 1 6 10 6 5 4 3 4 5 4 3 2 2 1 4 3 6 7 2 3 1 2 4 1 4 15 21 19 19 18 12 18 23 19 23 27 28 33 35 34 36 37
4 4 5 6 7 7 7 5 5 4 4 4 5 7 7 7 4 4 5 5 7 6 6 8 7 7 7 6 6 7 7 3 3 3 4 5 5 3 1 1 2 1 2 2 4 1 2 7 7 4 8 7 3 3 5 3 2 3 3 2 5 3 1 4 3 3 2 3 4 5 5 12 17 16 16 15 13 15 18 18 23 26 26 32 33 29 31 35
4 4 4 6 6 8 8 6 6 5 5 5 6 6 4 3 2 4 6 4 3 4 3 4 4 5 5 5 6 6 5 4 5 5 5 5 3 2 1 2 3 1 2 4 6 6 8 6 4 6 5 5 4 3 5 3 3 4 5 6 7 5 4 6 4 4 3 2 3 6 7 7 8 10 10 7 7 10 11 14 21 23 23 28 31 31 32 33
3 3 5 5 6 7 7 7 8 7 7 5 5 3 1 2 3 6 6 2 2 4 3 2 3 3 4 4 5 5 6 6 5 5 5 5 2 1 0 2 2 2 3 3 5 5 9 5 6 6 2 4 5 4 5 6 3 4 6 11 10 8 6 6 4 5 4 3 2 3 5 6 3 4 9 9 7 10 9 11 20 28 32 33 36 37 38 38
3 4 5 5 5 5 6 6 7 8 8 6 5 3 2 3 5 8 5 4 2 4 2 1 1 1 3 3 5 6 6 3 3 5 6 5 3 1 1 1 0 1 3 4 2 4 4 0 3 4 4 5 4 5 5 7 3 3 4 7 7 6 4 5 2 1 1 3 3 2 1 7 4 2 9 12 12 12 11 15 21 30 33 33 34 37 40 42
3 4 5 5 5 5 6 6 6 7 7 6 5 4 3 4 7 8 5 5 3 3 2 2 1 1 3 3 4 4 4 4 5 6 4 3 2 2 2 2 0 1 3 2 2 3 2 2 2 3 4 4 4 5 6 9 6 3 3 3 4 5 5 5 2 2 3 3 3 3 4 5 6 4 10 10 9 10 13 17 21 29 34 35 36 40 43 44
3 4 4 4 4 5 6 6 5 6 6 4 3 4 4 5 7 6 3 3 2 1 1 2 2 2 4 5 6 4 4 6 5 2 1 1 3 1 3 4 4 4 3 4 4 4 3 3 4 4 3 3 5 4 6 10 5 4 3 4 4 5 4 4 3 2 2 4 4 3 5 2 6 6 5 5 7 11 15 17 18 24 33 36 39 43 45 45
2 3 3 3 4 6 8 8 5 5 6 5 1 1 3 5 6 4 5 1 2 0 0 2 1 3 6 7 5 4 3 3 1 1 2 2 3 1 2 3 3 2 2 4 6 6 1 3 4 6 4 4 4 2 2 6 3 2 5 4 4 5 3 3 3 1 2 3 7 4 7 4 5 5 5 7 7 11 12 11 12 20 29 35 39 42 44 46
3 2 2 3 4 7 9 9 5 3 6 7 3 1 2 3 2 5 3 2 1 1 2 2 2 4 7 7 4 2 2 1 3 4 3 1 3 2 1 3 1 2 2 2 5 6 2 1 1 3 4 4 4 3 3 2 2 4 5 3 4 4 3 3 1 2 3 4 6 4 8 5 3 2 5 7 6 8 9 8 11 17 26 33 37 39 42 45
4 3 3 3 5 8 9 8 6 3 4 6 5 3 2 2 4 6 0 3 0 2 2 1 3 3 6 5 3 4 4 4 6 6 3 3 2 2 2 2 1 2 3 5 4 6 3 2 2 1 2 5 6 4 5 4 3 3 3 2 3 3 2 4 3 3 1 5 5 3 4 3 3 2 4 5 5 7 7 9 12 15 23 31 34 37 40 42
3 2 3 4 6 8 9 8 5 3 2 4 5 4 1 2 2 1 3 3 2 2 2 1 3 3 4 3 2 4 3 4 6 5 2 3 2 2 1 1 1 3 4 3 3 6 4 4 2 1 2 4 4 3 3 3 4 3 2 3 2 4 3 3 4 1 2 5 3 2 2 1 2 1 4 5 7 8 7 10 12 15 21 27 31 35 38 41
1 1 2 5 7 9 9 8 6 5 3 5 5 2 4 5 1 4 2 3 2 2 1 1 3 2 3 4 2 3 2 1 4 4 0 1 3 3 3 1 0 1 3 3 3 5 5 3 2 2 0 1 3 3 1 2 2 2 2 2 2 0 2 4 4 3 5 5 2 2 2 2 1 3 3 5 7 8 11 15 17 18 21 23 28 33 37 41
3 2 1 4 7 9 9 8 8 6 5 6 5 2 4 1 4 2 2 3 2 2 1 0 4 4 3 2 3 3 1 1 3 3 2 3 3 3 4 4 3 1 1 3 3 1 3 5 2 0 0 1 3 3 2 2 3 3 3 4 3 2 2 4 4 5 6 5 4 1 1 3 2 4 4 4 8 13 17 20 21 23 24 24 28 34 38 41
4 4 3 3 5 8 8 7 9 8 6 5 4 5 3 3 3 1 2 4 2 4 3 1 2 4 4 3 3 2 2 2 4 4 3 3 2 2 2 3 4 2 2 3 2 1 2 5 4 2 1 2 2 1 3 3 1 1 1 3 1 3 3 3 3 5 3 3 3 2 2 2 4 5 6 5 8 14 18 20 23 26 28 30 32 35 38 38
6 5 3 3 4 6 7 7 8 9 8 5 5 4 4 3 1 2 2 1 1 2 4 4 4 4 4 4 4 4 2 1 3 4 2 0 0 1 1 1 2 2 2 1 2 1 2 6 3 2 2 2 3 1 1 1 0 1 1 2 4 4 4 1 3 1 3 1 3 2 3 1 3 3 2 7 10 14 17 18 20 23 27 29 30 32 34 35
7 6 3 3 3 5 8 7 6 9 9 5 5 1 5 2 1 3 1 1 1 0 3 3 2 2 3 3 4 5 4 2 2 3 3 1 0 1 1 1 1 1 1 1 2 1 0 6 4 3 0 1 1 2 3 1 1 2 2 4 3 1 3 2 1 3 2 3 4 1 4 3 1 3 6 15 17 17 17 17 19 22 25 26 25 27 30 32
5 5 4 3 3 6 8 6 5 9 7 4 3 2 2 1 0 1 0 0 1 1 4 1 2 1 1 1 3 4 4 4 3 3 3 2 1 1 1 2 1 1 1 1 1 1 2 3 6 1 2 1 1 2 3 3 1 2 2 3 2 0 2 2 1 3 3 5 5 4 6 4 1 3 9 15 16 17 16 14 16 19 23 25 25 28 31 33
2 3 4 3 5 8 7 5 7 8 5 3 1 1 0 1 2 0 0 1 1 2 2 1 2 2 1 1 2 3 3 3 3 3 1 1 2 2 3 2 2 3 2 1 1 2 2 1 5 2 3 0 3 3 3 4 3 2 2 3 2 2 3 1 1 1 3 6 7 6 7 3 1 2 7 10 11 13 14 13 13 15 19 23 24 26 30 33
2 2 3 3 6 8 6 7 8 6 4 1 3 1 0 2 1 1 1 1 1 2 1 2 2 1 2 0 1 2 2 1 1 1 1 1 2 3 6 4 3 4 3 1 1 2 0 1 3 4 1 1 2 0 1 3 3 3 4 4 4 2 1 1 1 1 1 4 5 5 6 2 1 1 3 6 8 9 10 10 12 15 17 21 23 23 25 30
1 2 2 4 7 8 8 7 5 4 3 1 2 1 1 1 0 1 1 1 1 2 2 2 2 1 1 1 1 1 1 2 1 0 1 2 1 2 6 7 5 5 4 2 2 2 1 1 3 5 5 4 4 3 2 1 2 2 1 2 3 2 1 3 4 0 1 2 2 5 8 3 1 1 2 4 5 6 10 11 12 17 17 19 24 22 21 26
2 2 2 5 8 8 7 5 3 2 3 2 0 0 0 0 1 1 1 2 1 2 2 2 1 1 2 1 1 1 1 2 1 1 1 1 1 2 7 11 8 4 2 2 3 1 1 1 2 5 6 6 7 5 4 4 5 5 3 1 2 1 3 0 5 4 3 3 2 3 7 3 2 1 1 4 5 6 11 13 14 18 16 16 22 23 20 22
4 5 4 6 7 6 4 2 4 3 2 1 1 1 0 0 1 1 1 1 1 1 2 1 1 0 1 1 0 1 1 2 2 2 1 2 1 4 10 15 13 7 4 2 2 2 1 2 2 5 5 5 4 3 3 2 4 4 2 2 2 0 1 4 5 4 4 5 3 3 5 1 2 2 1 6 10 10 10 14 16 18 18 16 19 22 21 22
7 7 5 4 4 3 2 2 1 1 2 1 3 3 2 1 1 2 1 1 1 1 1 1 1 0 0 1 1 2 2 1 1 0 1 1 1 7 14 20 18 9 4 1 1 4 2 1 2 4 5 6 5 4 4 2 3 2 1 2 3 2 3 3 2 2 1 2 4 3 5 1 3 2 3 6 10 11 11 14 16 17 20 21 19 21 23 23
6 5 5 5 2 2 4 4 4 2 1 1 4 4 3 2 2 3 2 2 2 1 1 1 0 1 0 0 0 2 1 0 2 1 3 1 1 7 14 17 17 12 7 5 4 3 1 2 0 1 2 5 5 5 5 6 6 2 2 3 4 2 2 2 1 2 2 2 5 4 6 4 1 2 7 8 10 13 15 19 19 18 21 25 23 22 23 25
4 2 2 4 5 8 8 5 3 4 3 2 3 2 3 2 2 3 3 3 3 2 1 1 0 0 2 2 2 3 3 1 2 1 3 2 2 7 10 9 13 16 10 7 6 1 2 1 1 3 4 5 5 7 6 6 6 6 5 4 2 1 1 2 1 2 2 2 3 4 4 7 6 4 8 9 10 12 15 21 25 23 23 27 26 21 20 24
2 1 1 2 4 8 10 9 8 4 2 3 2 1 2 3 3 3 4 2 3 3 2 2 2 2 2 3 2 2 3 4 2 1 1 1 2 7 10 5 9 18 13 9 9 4 3 2 1 3 3 6 7 9 9 7 5 6 7 5 2 1 2 5 2 3 2 2 4 3 4 7 8 6 8 10 9 10 13 20 26 27 26 29 28 20 19 24
2 3 3 3 2 2 5 7 8 7 5 3 3 1 2 3 4 2 2 2 3 5 3 2 4 4 2 3 0 1 4 4 3 1 0 2 2 6 8 3 5 15 14 9 9 6 4 2 3 1 4 6 8 10 8 6 4 3 3 6 5 3 3 4 1 4 2 3 7 8 8 9 8 6 7 8 9 10 13 19 25 26 26 29 27 19 18 24
6 7 6 6 5 3 3 2 5 8 7 4 3 2 2 3 4 2 1 2 3 5 6 2 4 7 4 2 1 1 3 3 4 4 1 3 4 3 4 3 3 11 12 6 6 5 3 2 3 3 6 6 7 7 4 3 4 4 2 4 5 5 3 2 0 5 5 6 9 10 12 11 6 3 6 9 11 13 16 21 24 24 27 30 25 16 18 23
7 6 7 11 10 7 5 2 3 5 5 4 3 2 2 3 3 3 3 4 2 4 6 3 5 7 3 2 3 2 1 1 3 6 2 2 4 0 1 1 1 7 9 3 3 5 4 2 3 3 5 6 3 1 3 5 7 5 1 5 5 5 5 2 3 5 6 8 9 9 12 10 3 5 10 12 14 16 18 21 23 24 30 31 21 14 18 21
7 8 10 11 7 7 6 3 3 4 3 4 3 2 2 3 1 1 3 7 6 3 3 3 5 5 3 5 5 3 5 5 7 11 8 4 3 2 1 1 1 3 5 3 2 4 4 2 3 5 5 6 2 3 7 5 2 1 2 6 7 5 4 4 6 7 8 11 13 10 8 6 5 11 15 13 13 15 17 21 24 30 34 27 16 15 19 19
8 9 8 6 4 5 5 3 3 4 2 2 2 2 2 2 3 1 3 5 8 7 4 4 3 2 2 5 6 7 12 13 12 12 8 6 6 3 1 2 3 1 1 0 2 2 2 1 3 3 3 5 3 7 9 2 4 3 2 4 4 2 4 7 8 9 10 9 8 7 5 6 10 14 16 14 12 13 16 21 27 36 37 22 12 17 21 24
Wind_Direction
291 306 311 310 313 313 298 279 260 242 232 229 225 218 215 214 213 210 209 222 235 228 228 136 82 115 203 217 222 247 273 296 287 287 303 294 328 339 335 337 329 315 305 293 283 269 256 245 234 218 206 191 198 197 185 190 172 158 120 187 231 208 211 196 189 198 178 284 273 267 245 210 262 257 240 261 244 244 249 247 244 241 247 253 258 261 260 261
290 302 303 307 314 318 313 293 267 249 238 235 235 234 233 233 233 227 217 221 232 237 242 231 137 184 237 246 248 258 283 294 282 285 298 297 327 335 334 339 334 321 314 301 295 282 259 246 234 217 203 193 200 195 186 188 182 177 131 199 231 200 217 217 209 225 239 278 277 288 272 222 249 263 248 261 249 247 253 256 251 250 258 259 259 261 261 260
288 297 298 305 309 312 309 298 284 268 248 238 241 244 243 240 237 235 228 225 232 243 248 248 246 232 248 254 255 260 276 290 289 287 285 298 328 334 338 341 336 327 321 315 306 284 257 239 231 217 203 200 206 198 187 180 190 206 177 223 248 218 248 257 250 260 263 270 279 283 263 235 255 259 237 242 268 268 246 253 249 250 266 274 269 265 262 260
285 296 299 303 306 306 304 299 294 283 267 247 236 237 242 242 238 237 236 232 235 243 247 256 264 254 258 252 253 254 277 307 299 274 272 308 329 335 342 342 338 334 329 325 314 277 243 223 215 205 199 209 208 195 203 194 194 199 177 212 234 185 255 263 264 278 275 266 262 268 267 264 268 256 233 235 284 275 250 259 262 261 274 285 279 273 267 261
282 294 299 302 304 305 305 301 294 284 273 260 243 233 233 237 238 237 237 236 237 242 245 253 260 264 271 257 246 233 291 347 357 151 315 317 331 337 341 342 341 337 332 330 325 277 209 193 183 185 195 220 182 175 223 202 193 201 211 234 235 192 243 271 275 285 279 264 257 261 258 268 270 249 237 226 226 258 265 272 274 275 281 282 276 273 268 262
279 287 295 300 303 305 306 304 299 288 274 265 257 245 234 231 235 236 237 236 236 240 241 242 248 262 274 262 241 221 207 62 159 327 323 320 329 333 338 343 347 341 334 337 340 313 192 186 186 188 189 234 187 191 233 198 194 235 251 246 248 233 237 270 278 279 279 266 254 251 252 264 265 263 252 229 233 262 273 275 275 276 276 274 272 268 265 262
275 285 294 300 305 308 310 310 305 295 279 265 258 253 246 237 232 233 235 234 233 234 237 237 243 257 269 260 234 226 230 241 273 305 312 319 322 326 337 342 348 346 338 335 345 21 204 195 204 204 168 314 225 211 240 217 202 221 263 263 257 253 250 267 274 273 276 266 261 262 265 265 253 267 272 244 252 267 275 273 272 273 271 270 269 267 265 263
276 288 298 304 308 311 311 312 309 300 287 266 254 252 252 248 240 235 231 231 231 230 233 233 239 253 261 255 227 233 249 258 279 297 307 316 316 321 334 337 342 347 345 326 328 357 285 221 214 214 189 222 221 212 232 264 236 206 241 271 266 266 267 272 274 272 273 268 268 265 256 260 260 271 273 261 266 272 274 273 272 270 269 268 267 266 264 261
283 294 302 308 309 309 310 311 305 295 292 276 256 249 250 252 246 238 229 227 227 227 228 227 235 248 255 247 220 234 258 255 275 296 307 312 310 316 320 327 334 341 346 321 304 308 290 252 226 229 234 232 216 218 199 215 251 215 231 278 281 279 284 281 277 275 272 267 265 254 254 264 272 289 271 266 272 277 275 272 271 269 267 267 267 266 264 262
289 299 306 310 308 309 318 320 299 290 308 309 258 237 239 243 238 233 226 222 221 220 220 219 228 240 250 236 200 205 252 240 303 311 312 307 303 308 309 315 323 334 341 321 291 282 281 266 261 256 251 243 204 219 194 177 244 267 272 287 279 280 287 281 275 273 271 273 261 244 263 274 275 307 271 269 273 278 275 274 273 269 268 270 269 267 265 263
292 304 308 311 316 328 339 345 330 322 356 25 141 200 217 228 225 221 216 210 209 207 209 214 226 238 242 226 201 196 236 274 315 318 317 312 304 301 302 305 309 318 328 324 297 277 276 270 271 267 251 242 212 236 230 218 261 300 313 298 286 294 292 274 266 271 269 278 263 245 269 276 268 216 251 263 269 275 278 279 278 273 272 275 272 269 266 264
297 305 309 317 334 351 4 21 39 53 57 72 115 167 189 214 214 207 194 186 190 193 201 210 225 235 230 228 227 231 262 284 299 309 316 316 306 296 292 291 292 293 303 319 306 281 280 283 274 262 247 224 221 284 248 241 276 298 334 306 298 327 310 273 259 261 232 258 277 303 295 261 213 230 252 265 275 278 279 280 281 278 277 279 275 271 266 264
299 305 313 327 352 18 34 46 57 69 74 79 88 102 117 154 171 161 158 163 176 185 195 207 219 231 224 236 249 255 267 277 287 297 305 310 310 303 290 281 276 274 281 297 310 294 278 292 281 252 240 224 228 254 261 295 303 288 2 19 311 339 316 284 36 94 175 250 259 44 304 260 220 244 258 274 284 278 279 279 281 281 280 280 277 274 271 268
298 309 334 356 23 41 51 58 65 71 72 74 77 81 93 104 116 127 140 156 170 175 181 191 196 210 222 248 276 273 271 275 280 285 292 304 309 303 293 284 271 265 267 272 294 296 279 295 289 242 224 221 228 230 282 349 21 295 322 52 350 324 287 300 7 143 327 284 146 102 273 268 264 266 273 286 276 271 275 277 281 282 281 280 278 276 275 273
297 318 40 64 67 63 63 65 68 71 70 68 68 70 77 82 94 113 133 150 156 158 166 180 195 221 247 267 277 279 279 272 274 284 294 306 309 298 295 289 273 265 259 259 272 273 272 283 273 232 195 210 206 221 325 346 9 16 311 305 335 209 270 306 306 198 238 277 112 119 251 275 275 278 289 290 269 267 272 279 283 281 280 280 278 277 275 273
294 330 97 92 85 81 75 73 72 71 67 64 64 64 68 75 88 111 135 144 145 152 164 190 225 249 272 288 284 282 279 270 277 290 296 307 308 296 304 302 280 265 253 251 257 250 258 277 269 242 184 197 115 84 21 343 332 12 236 265 275 241 290 317 326 182 213 211 41 156 243 278 278 277 289 290 287 288 280 279 279 279 280 279 279 278 276 274
287 249 134 118 101 98 89 84 78 71 65 62 62 62 64 74 100 136 157 162 167 187 228 258 269 283 280 277 284 282 280 280 287 293 296 303 299 290 307 317 295 255 239 236 242 236 246 266 206 215 59 64 90 89 27 320 298 331 14 262 261 243 275 301 307 9 45 148 257 286 238 262 271 278 283 286 291 286 273 274 277 280 281 281 280 278 277 276
274 198 164 155 134 118 102 87 74 69 61 56 59 59 59 68 120 173 197 215 232 255 272 268 274 297 275 266 290 295 294 294 293 295 295 294 292 291 301 313 298 230 216 217 229 222 237 262 134 228 11 22 64 107 167 247 225 258 269 271 290 269 235 254 272 329 34 190 235 268 263 266 273 280 284 287 288 274 268 273 278 280 281 282 281 278 278 277
254 208 180 178 174 151 123 88 66 67 60 62 65 58 53 44 208 221 232 244 253 266 276 261 240 215 257 292 308 303 303 303 298 296 293 292 295 293 292 300 279 222 193 192 228 195 204 353 96 282 280 231 208 173 203 221 197 219 236 231 270 282 259 236 245 266 31 309 258 235 253 271 279 284 285 290 289 270 270 276 278 278 279 280 280 280 279 277
246 216 192 191 197 187 157 123 69 64 72 89 69 41 32 11 325 244 257 262 261 260 263 262 255 255 274 296 303 304 308 306 297 294 295 300 303 297 288 285 261 203 173 186 238 48 58 315 242 233 231 223 219 202 203 198 172 194 209 231 244 259 274 258 229 280 59 287 263 232 253 272 276 279 282 289 292 273 270 275 276 275 277 278 280 282 283 281
244 218 199 203 210 209 195 184 217 14 84 176 304 348 353 339 323 304 302 283 268 266 263 263 264 266 275 288 294 304 315 309 291 289 296 310 320 306 279 289 127 181 289 152 197 16 64 253 247 233 229 222 207 184 161 133 141 184 205 255 269 230 263 278 301 307 29 212 261 250 286 281 277 279 282 288 290 273 268 267 271 275 279 281 282 284 287 289
241 221 207 213 219 221 216 211 230 263 296 294 299 317 327 323 308 300 307 290 275 273 265 261 263 265 273 283 289 305 317 309 280 281 298 314 325 306 262 66 108 211 316 79 136 342 12 250 254 226 167 116 90 127 143 149 145 168 164 255 283 230 266 294 335 338 53 201 267 320 306 283 283 285 283 282 271 266 269 265 269 276 281 285 287 292 299 302
236 223 218 220 222 225 223 226 237 254 291 310 316 318 321 323 310 306 313 294 282 288 276 264 261 264 271 275 282 304 312 297 270 291 310 311 320 322 256 135 132 177 351 147 179 264 266 252 253 167 133 116 79 106 125 123 148 188 164 188 264 248 277 281 297 326 242 216 276 298 285 275 283 288 283 274 253 259 272 271 276 283 288 296 306 320 327 326
235 225 227 224 221 224 225 232 242 257 283 303 319 319 323 333 331 322 319 299 288 320 314 277 265 263 265 269 285 304 307 290 282 287 306 315 325 326 276 133 125 175 240 190 170 209 246 238 154 122 135 142 142 145 142 168 251 234 200 208 246 249 220 235 281 328 292 283 310 301 291 268 265 273 282 280 239 255 288 298 307 327 343 344 350 359 358 353
243 232 227 222 219 223 227 236 246 257 270 288 303 291 291 341 341 335 338 5 310 320 341 301 283 268 256 264 285 299 302 294 281 274 293 310 301 297 348 131 143 226 220 161 147 234 263 238 148 132 145 157 168 205 185 182 237 294 228 214 231 246 239 249 307 351 341 323 316 342 324 288 249 255 292 311 294 294 340 358 350 2 11 10 10 7 3 1
257 237 221 218 218 224 231 240 253 257 256 264 264 244 254 308 337 339 353 52 332 308 354 324 300 301 257 264 292 306 311 294 267 282 281 281 270 231 219 181 175 241 189 155 158 240 268 159 131 145 160 167 189 243 224 175 164 304 251 210 218 231 234 246 280 357 282 262 263 76 32 276 300 6 284 291 298 312 4 23 9 9 12 12 12 8 6 7
257 240 220 216 218 224 226 234 256 254 245 247 239 225 260 300 334 337 354 40 351 297 325 281 256 313 282 285 301 312 318 304 304 297 261 245 255 192 233 261 255 233 185 135 306 258 163 87 61 107 133 161 201 251 224 160 142 250 242 137 144 160 181 201 182 201 244 290 282 156 148 266 293 272 265 287 316 334 13 20 9 8 9 11 13 13 14 14
251 243 227 225 223 221 220 227 251 247 226 223 226 231 266 305 327 343 52 56 326 288 341 286 236 261 302 311 293 263 277 299 319 321 181 227 262 203 252 239 189 215 189 148 259 269 139 163 194 154 130 193 211 240 203 165 161 247 198 117 119 133 151 150 138 210 298 344 291 210 146 249 278 266 288 348 6 356 10 16 7 4 7 10 14 16 18 19
256 245 232 238 226 218 220 223 242 244 215 201 178 236 278 302 315 11 80 110 292 66 188 298 256 274 317 325 290 261 272 292 346 342 331 304 266 254 284 247 165 196 222 174 234 271 67 170 192 156 164 218 219 297 209 179 205 202 127 93 66 69 66 81 114 142 49 330 278 234 164 196 277 292 351 22 21 353 354 8 4 2 8 13 14 15 18 20
272 261 240 238 222 214 217 219 231 240 212 203 195 235 317 316 355 55 52 258 283 334 268 285 290 303 338 349 321 338 17 318 341 335 325 316 269 289 283 264 125 124 289 304 253 267 307 122 167 163 187 182 132 59 31 86 129 124 104 51 30 42 44 50 81 98 63 279 279 247 182 186 276 306 30 32 14 343 337 359 2 1 10 14 14 14 16 19
279 274 241 227 215 208 209 213 219 217 204 206 213 236 292 337 67 87 245 249 198 336 337 359 318 353 30 26 335 344 11 346 351 1 343 346 327 335 11 278 306 47 351 339 297 290 304 185 227 247 165 125 102 63 35 59 88 95 73 35 354 332 17 21 352 56 100 254 272 269 201 182 238 257 52 48 22 0 357 5 359 0 7 9 11 13 15 18
291 270 234 213 204 200 201 203 199 183 180 183 196 221 195 38 29 146 265 301 359 343 6 350 325 21 37 26 323 311 336 339 360 34 27 359 354 302 334 208 258 345 336 321 319 319 296 229 260 27 125 134 109 62 21 25 47 61 63 61 17 328 352 339 305 301 223 243 240 205 198 189 214 161 51 45 30 16 19 20 10 8 6 6 10 12 15 17
341 265 202 197 195 196 196 193 178 162 157 157 168 183 84 71 261 232 275 326 346 337 348 294 322 12 358 353 337 301 312 315 352 26 204 342 2 314 326 39 156 330 290 285 332 341 327 313 9 52 86 194 155 139 307 318 69 135 173 122 127 338 320 283 278 289 275 270 262 179 176 249 224 106 69 55 44 26 26 26 21 18 12 9 12 13 15 17
44 69 139 185 188 193 193 186 178 162 147 157 156 96 71 94 237 221 289 280 281 335 10 342 332 356 20 11 324 314 8 319 337 6 337 360 19 342 345 354 1 90 189 309 330 339 319 312 322 54 272 191 189 180 166 145 130 178 176 129 148 176 235 255 253 265 282 295 290 273 181 228 182 128 135 100 53 34 28 22 19 19 15 13 15 16 17 17
58 72 107 162 180 194 192 187 187 175 163 163 108 70 116 233 252 185 261 265 294 327 318 354 9 6 2 342 319 352 72 302 326 4 354 7 17 332 341 332 335 69 90 340 311 220 281 274 255 310 343 164 192 189 135 116 99 222 133 105 186 197 187 234 233 222 270 323 289 266 235 208 116 131 145 111 52 31 25 18 16 14 12 14 16 15 15 14
63 69 85 129 167 190 187 186 189 186 187 162 77 69 185 222 244 171 221 289 7 324 328 354 33 29 343 324 333 4 55 246 322 354 332 286 272 270 230 268 308 31 85 84 281 315 323 283 263 39 352 166 154 206 205 204 271 132 118 216 228 181 145 234 283 305 63 303 268 266 247 298 74 155 110 37 22 19 16 12 14 12 11 14 15 13 12 12
67 64 77 118 142 170 173 177 180 187 191 144 88 198 218 204 170 187 209 354 264 14 37 5 349 15 342 322 321 332 346 313 337 354 319 313 42 235 283 321 248 257 135 141 276 275 210 290 301 94 145 233 155 284 288 275 163 141 205 256 253 167 99 105 270 334 19 253 270 308 251 277 302 250 0 13 7 7 6 1 3 6 9 12 10 10 10 10
74 67 72 97 128 149 157 163 169 175 168 106 81 233 215 96 332 246 253 50 251 39 65 40 288 357 56 300 296 305 331 333 347 360 325 334 34 135 57 7 338 305 316 80 313 289 133 298 307 119 169 306 17 340 326 320 264 164 237 302 13 232 302 9 319 304 307 277 284 281 264 274 226 285 352 7 3 359 357 356 357 360 4 4 3 6 7 8
80 72 56 77 138 147 147 150 161 160 126 82 212 240 129 275 301 289 124 36 110 81 71 205 261 352 16 186 255 297 335 327 332 358 352 352 8 56 53 1 352 359 333 153 212 270 131 231 286 243 167 28 27 41 344 305 313 39 8 340 34 179 233 260 226 268 284 277 281 277 274 281 124 333 354 4 3 358 352 355 355 352 359 1 0 3 5 7
80 74 50 96 145 151 148 144 144 131 84 114 201 198 297 270 279 108 76 29 84 84 89 198 187 325 316 308 241 302 336 270 264 334 301 309 347 36 42 22 353 342 317 221 210 273 68 165 261 283 271 345 349 332 265 291 321 15 16 347 336 304 266 299 249 181 264 284 294 299 285 264 113 44 32 14 5 1 352 353 350 344 353 2 1 1 3 6
87 79 56 121 141 144 139 124 104 89 87 135 194 181 284 256 141 51 44 101 96 81 131 161 146 171 259 333 300 267 316 293 263 261 274 318 2 39 28 14 341 320 327 353 353 323 335 199 254 295 318 321 302 265 239 217 148 106 54 341 323 308 347 323 295 246 84 285 269 290 289 269 132 83 65 25 1 2 357 352 348 344 348 358 360 358 359 4
94 90 84 131 140 142 133 101 32 56 108 99 57 182 271 331 78 49 72 115 90 61 95 111 102 135 165 241 265 223 278 283 247 136 249 264 75 38 3 359 351 342 3 349 322 295 150 131 284 284 286 290 288 286 263 202 136 103 91 35 340 37 86 303 284 306 314 276 204 251 278 250 153 276 37 30 352 347 357 356 351 348 346 349 354 355 352 356
90 95 111 139 141 136 118 59 358 8 61 96 126 138 88 79 94 75 71 70 58 42 37 60 126 120 181 215 248 212 234 239 193 163 226 239 72 29 13 17 23 21 18 1 315 338 104 112 359 296 280 290 294 298 265 191 95 64 31 34 46 65 121 202 246 300 287 276 291 254 264 233 167 247 84 46 5 347 352 358 354 351 349 345 346 353 351 348
98 91 96 126 154 151 113 117 113 5 319 347 61 34 7 53 74 40 18 21 39 104 83 51 124 99 236 178 156 223 235 287 259 112 64 211 81 37 30 35 40 31 5 325 276 341 343 162 33 342 321 326 337 341 314 313 32 54 204 19 28 4 333 271 267 358 257 294 352 287 276 311 153 181 39 34 10 357 355 359 354 350 351 347 341 347 351 347
112 91 78 81 99 119 106 130 144 137 265 35 44 14 351 15 40 30 35 60 55 87 112 49 88 152 13 103 301 289 284 282 270 354 35 290 297 28 28 35 34 16 345 311 287 295 266 216 89 31 310 308 310 305 303 314 334 345 140 55 26 360 333 304 311 318 245 346 5 290 276 305 195 67 16 5 5 1 353 352 350 346 349 348 341 340 347 350
137 109 65 61 63 79 86 82 91 115 135 102 60 18 2 1 356 20 41 69 53 40 99 85 343 117 34 18 351 322 325 302 265 330 20 307 285 1 7 24 21 6 2 356 336 329 123 358 100 135 179 219 248 261 275 300 306 300 312 3 39 279 283 103 122 256 263 317 311 254 280 310 304 353 7 358 6 3 350 349 347 341 342 344 340 335 343 351
133 115 70 86 65 68 68 49 45 78 123 112 105 52 358 329 313 16 41 63 59 38 75 92 37 41 8 351 9 341 313 317 320 330 28 321 264 336 341 357 13 5 16 26 6 36 92 336 341 118 184 218 246 270 278 289 279 281 307 321 333 331 63 88 120 256 297 294 267 290 342 311 304 342 359 353 1 1 351 349 343 335 333 337 334 329 339 348
110 117 88 107 121 51 50 36 49 73 69 79 125 132 22 9 356 18 20 14 48 37 38 59 30 26 327 297 50 358 317 331 340 304 13 5 338 340 336 324 13 9 16 23 16 58 113 269 265 290 281 250 252 267 277 300 278 230 265 293 303 339 62 96 187 262 270 247 267 303 319 301 300 330 349 352 359 357 349 342 336 331 329 330 328 327 339 345
115 113 80 88 103 84 88 74 69 76 54 37 80 72 65 49 15 355 337 6 22 15 22 31 344 348 334 301 112 76 338 355 329 298 264 5 343 1 349 309 345 7 13 20 13 46 100 262 276 312 301 270 249 259 276 306 264 228 250 302 314 329 338 94 262 289 287 263 267 291 304 297 297 328 337 348 350 345 341 335 334 335 331 328 325 326 336 341
124 125 105 101 90 56 56 64 59 74 43 22 56 51 75 89 18 340 15 37 11 344 20 32 310 324 346 33 62 64 331 359 273 268 239 12 337 255 96 267 252 352 2 12 342 17 48 321 312 20 331 285 245 322 318 268 241 223 291 347 354 347 340 11 360 327 312 293 289 297 298 291 313 357 332 335 342 339 337 334 333 333 328 323 320 324 332 335
119 131 127 113 79 13 18 34 43 75 41 15 36 2 24 79 42 323 39 52 60 48 16 336 302 314 14 28 36 20 328 311 266 264 260 246 250 228 264 321 214 318 347 14 344 6 42 348 344 45 1 286 228 15 328 292 216 143 1 355 356 1 5 359 341 325 311 307 309 307 298 296 339 338 321 318 334 338 333 331 331 327 322 317 314 323 329 331
122 135 136 111 67 7 10 21 32 63 65 3 10 339 348 21 9 75 120 62 58 65 37 345 321 310 14 18 8 338 321 306 283 282 279 234 226 224 28 24 51 47 273 28 32 33 83 32 357 33 338 278 287 337 329 19 67 356 327 349 334 338 4 347 333 317 302 300 304 300 303 326 337 335 324 318 329 337 330 330 329 321 315 312 317 325 328 332
Height
1528 1528 1527 1527 1526 1526 1525 1525 1525 1525 1526 1526 1526 1527 1527 1528 1528 1529 1529 1530 1530 1531 1531 1531 1531 1531 1531 1531 1531 1532 1532 1532 1532 1532 1532 1532 1532 1532 1531 1531 1531 1530 1530 1529 1529 1529 1529 1529 1529 1530 1530 1531 1531 1531 1532 1533 1533 1534 1536 1539 1538 1537 1535 1529 1528 1527 1525 1523 1522 1522 1522 1523 1521 1521 1521 1521 1520 1519 1519 1517 1516 1516 1515 1515 1514 1514 1514 1514
1528 1528 1527 1527 1526 1526 1525 1525 1525 1525 1525 1525 1525 1526 1526 1527 1528 1528 1529 1529 1530 1530 1530 1531 1531 1531 1531 1531 1531 1531 1531 1531 1531 1531 1532 1532 1532 1531 1531 1531 1530 1530 1529 1529 1528 1528 1528 1528 1529 1529 1530 1530 1531 1531 1532 1532 1532 1533 1535 1538 1534 1531 1529 1525 1525 1524 1524 1523 1522 1522 1522 1522 1520 1520 1520 1520 1518 1518 1517 1514 1514 1514 1512 1512 1512 1512 1512 1512
1527 1527 1527 1527 1526 1525 1525 1525 1524 1524 1524 1524 1525 1525 1525 1526 1527 1528 1528 1529 1529 1529 1530 1530 1530 1530 1530 1530 1530 1531 1531 1531 1531 1531 1531 1531 1532 1531 1530 1530 1529 1529 1528 1528 1527 1527 1527 1527 1528 1528 1529 1530 1530 1531 1531 1531 1531 1531 1533 1535 1530 1527 1526 1524 1524 1523 1523 1522 1521 1521 1521 1520 1519 1519 1520 1518 1517 1516 1514 1511 1512 1511 1509 1510 1509 1509 1509 1510
1527 1527 1526 1526 1525 1525 1524 1524 1524 1523 1523 1524 1524 1524 1525 1525 1526 1527 1527 1528 1529 1529 1529 1530 1530 1530 1530 1530 1530 1530 1530 1530 1530 1531 1531 1531 1531 1530 1530 1529 1529 1528 1528 1527 1527 1527 1527 1527 1528 1528 1529 1529 1530 1530 1530 1530 1530 1530 1531 1530 1526 1526 1525 1522 1522 1522 1521 1521 1520 1520 1520 1519 1517 1518 1517 1517 1516 1512 1508 1507 1508 1507 1506 1507 1507 1507 1507 1507
1527 1526 1526 1525 1524 1524 1523 1523 1523 1523 1523 1523 1524 1524 1524 1525 1525 1526 1527 1528 1528 1529 1529 1529 1529 1529 1529 1529 1530 1530 1530 1531 1530 1531 1531 1531 1531 1530 1530 1529 1528 1528 1527 1527 1527 1527 1527 1527 1527 1528 1529 1529 1529 1530 1529 1529 1529 1529 1527 1525 1524 1525 1524 1521 1521 1521 1520 1520 1519 1519 1519 1517 1516 1516 1514 1515 1515 1506 1502 1504 1504 1504 1505 1505 1505 1504 1504 1504
1526 1526 1525 1525 1524 1523 1522 1522 1522 1521 1522 1522 1522 1523 1523 1524 1524 1525 1526 1527 1527 1528 1528 1528 1529 1529 1529 1529 1529 1530 1530 1531 1530 1531 1531 1530 1530 1530 1529 1529 1528 1527 1527 1527 1526 1526 1526 1527 1527 1528 1528 1528 1529 1528 1528 1528 1528 1527 1525 1524 1523 1523 1523 1520 1520 1520 1519 1519 1518 1517 1516 1516 1515 1514 1512 1512 1508 1500 1500 1503 1502 1502 1502 1502 1502 1502 1501 1501
1526 1526 1525 1524 1523 1522 1521 1521 1520 1520 1520 1521 1521 1522 1522 1523 1524 1525 1525 1526 1526 1527 1527 1528 1528 1528 1528 1528 1529 1529 1530 1530 1530 1531 1530 1530 1530 1529 1529 1528 1528 1527 1527 1526 1526 1526 1526 1527 1527 1527 1528 1528 1528 1527 1527 1527 1527 1527 1524 1523 1522 1522 1521 1519 1519 1518 1518 1517 1516 1516 1515 1515 1514 1512 1510 1507 1500 1496 1498 1500 1500 1500 1499 1500 1499 1499 1499 1498
1526 1525 1524 1523 1522 1521 1520 1520 1519 1519 1519 1520 1520 1521 1521 1522 1523 1524 1525 1525 1525 1526 1526 1527 1527 1528 1528 1528 1529 1529 1530 1529 1530 1530 1530 1530 1529 1529 1529 1528 1528 1527 1526 1526 1526 1526 1526 1527 1527 1527 1527 1527 1527 1526 1527 1526 1526 1526 1524 1522 1521 1520 1519 1518 1518 1516 1516 1515 1515 1515 1514 1512 1512 1513 1508 1499 1493 1493 1496 1497 1497 1497 1496 1496 1496 1495 1496 1496
1525 1524 1524 1523 1522 1521 1520 1519 1519 1518 1519 1519 1520 1520 1521 1521 1522 1523 1524 1524 1524 1525 1525 1526 1527 1527 1527 1528 1529 1530 1529 1529 1530 1529 1529 1529 1528 1528 1528 1528 1527 1526 1526 1526 1526 1526 1526 1526 1526 1526 1526 1526 1526 1526 1526 1526 1524 1523 1522 1521 1520 1519 1517 1517 1516 1515 1515 1513 1514 1513 1511 1511 1512 1512 1501 1489 1489 1491 1493 1494 1493 1494 1493 1492 1492 1492 1492 1492
1524 1524 1523 1522 1522 1521 1520 1519 1518 1518 1518 1518 1519 1519 1520 1520 1521 1522 1523 1523 1524 1524 1525 1525 1526 1526 1527 1527 1529 1530 1529 1529 1529 1529 1529 1528 1528 1528 1527 1527 1526 1526 1526 1525 1525 1526 1526 1526 1526 1526 1525 1525 1525 1525 1525 1525 1523 1521 1522 1520 1519 1518 1516 1515 1514 1514 1514 1512 1512 1510 1510 1510 1511 1513 1496 1481 1487 1489 1489 1491 1491 1491 1490 1489 1488 1488 1488 1488
1524 1524 1523 1522 1521 1520 1519 1519 1518 1518 1518 1518 1519 1519 1519 1520 1520 1521 1522 1522 1523 1524 1524 1525 1525 1526 1527 1527 1528 1529 1528 1528 1528 1528 1528 1528 1527 1527 1526 1526 1526 1526 1525 1525 1525 1525 1525 1525 1525 1525 1524 1525 1525 1524 1524 1523 1522 1521 1521 1519 1518 1517 1515 1514 1513 1512 1512 1511 1510 1510 1510 1509 1511 1509 1489 1478 1486 1488 1488 1489 1488 1488 1486 1486 1485 1485 1485 1484
1524 1524 1523 1522 1521 1520 1519 1518 1518 1518 1518 1518 1519 1519 1519 1520 1520 1521 1521 1522 1523 1523 1524 1524 1525 1526 1526 1527 1527 1527 1527 1528 1528 1528 1528 1527 1527 1526 1526 1525 1525 1526 1525 1525 1525 1525 1525 1524 1524 1524 1524 1524 1524 1523 1522 1522 1522 1521 1521 1520 1517 1516 1513 1511 1511 1512 1512 1511 1509 1510 1507 1503 1503 1494 1478 1480 1487 1487 1486 1486 1484 1484 1483 1483 1482 1481 1481 1480
1524 1523 1522 1521 1521 1520 1519 1519 1518 1518 1518 1519 1519 1519 1519 1519 1520 1520 1521 1522 1522 1523 1524 1524 1525 1525 1526 1526 1526 1527 1527 1527 1527 1527 1527 1527 1526 1525 1525 1525 1525 1525 1525 1525 1524 1524 1524 1524 1524 1523 1523 1523 1523 1523 1522 1522 1522 1520 1522 1521 1518 1517 1512 1510 1512 1511 1511 1511 1509 1511 1505 1494 1491 1482 1476 1484 1487 1485 1485 1483 1482 1481 1480 1480 1478 1477 1477 1477
1524 1523 1522 1522 1521 1520 1520 1519 1519 1519 1519 1519 1519 1519 1519 1520 1520 1521 1521 1522 1523 1523 1523 1524 1525 1525 1526 1526 1526 1526 1526 1526 1526 1526 1526 1526 1525 1525 1524 1524 1524 1524 1524 1524 1524 1524 1523 1523 1523 1522 1523 1523 1523 1522 1522 1523 1522 1522 1521 1522 1525 1520 1510 1510 1513 1511 1510 1510 1509 1513 1508 1493 1483 1477 1478 1484 1484 1484 1483 1480 1480 1478 1477 1476 1475 1474 1473 1473
1523 1523 1522 1522 1521 1521 1520 1520 1520 1520 1520 1520 1520 1520 1520 1520 1520 1521 1522 1522 1523 1523 1524 1524 1525 1525 1526 1525 1525 1525 1526 1526 1525 1525 1525 1525 1524 1524 1523 1523 1522 1523 1523 1523 1523 1523 1523 1523 1522 1522 1522 1522 1522 1522 1522 1523 1523 1525 1520 1518 1526 1523 1512 1510 1512 1512 1510 1510 1510 1512 1507 1492 1480 1475 1477 1482 1482 1483 1481 1478 1477 1474 1473 1471 1470 1470 1468 1468
1523 1523 1522 1522 1522 1521 1521 1521 1521 1521 1521 1520 1520 1520 1520 1521 1521 1522 1522 1523 1523 1524 1524 1524 1525 1525 1525 1525 1525 1525 1525 1525 1525 1524 1524 1524 1523 1523 1522 1522 1521 1521 1522 1522 1522 1522 1522 1522 1522 1522 1522 1522 1523 1523 1523 1523 1522 1526 1524 1517 1519 1520 1516 1512 1510 1512 1512 1510 1511 1511 1505 1493 1479 1472 1475 1480 1480 1481 1480 1475 1472 1469 1467 1466 1465 1464 1463 1462
1522 1522 1522 1522 1522 1522 1522 1522 1522 1522 1521 1521 1521 1521 1521 1521 1522 1522 1523 1523 1524 1524 1524 1524 1524 1525 1524 1524 1524 1524 1525 1524 1524 1523 1523 1522 1522 1521 1521 1521 1520 1520 1520 1521 1521 1521 1521 1521 1522 1522 1522 1523 1524 1523 1524 1522 1518 1523 1527 1522 1519 1520 1519 1513 1508 1511 1513 1512 1511 1511 1508 1494 1479 1473 1474 1479 1480 1480 1477 1471 1468 1466 1463 1461 1460 1459 1457 1455
1522 1522 1522 1522 1522 1522 1522 1522 1522 1522 1522 1522 1522 1522 1522 1522 1523 1523 1524 1524 1524 1524 1524 1523 1524 1525 1524 1523 1524 1524 1524 1523 1523 1522 1521 1521 1520 1520 1520 1520 1520 1520 1520 1520 1520 1521 1521 1521 1522 1522 1523 1524 1524 1523 1523 1519 1515 1518 1522 1521 1519 1520 1520 1515 1511 1511 1513 1512 1510 1512 1508 1491 1479 1475 1471 1475 1479 1476 1472 1468 1465 1462 1459 1457 1455 1453 1451 1450
1522 1522 1522 1522 1523 1522 1522 1522 1522 1522 1522 1522 1522 1523 1523 1523 1524 1524 1524 1524 1523 1523 1523 1523 1523 1525 1524 1523 1523 1523 1522 1522 1521 1520 1520 1520 1519 1519 1519 1519 1519 1519 1519 1519 1519 1520 1520 1520 1521 1521 1520 1520 1519 1520 1518 1516 1517 1518 1521 1521 1520 1519 1516 1513 1513 1512 1513 1512 1509 1510 1505 1490 1481 1475 1469 1471 1476 1473 1468 1466 1462 1459 1455 1453 1451 1448 1447 1445
1522 1522 1522 1522 1523 1523 1522 1522 1523 1522 1523 1523 1523 1524 1524 1524 1524 1524 1523 1523 1522 1522 1522 1522 1522 1523 1522 1522 1522 1522 1521 1521 1520 1519 1519 1518 1518 1518 1518 1518 1518 1518 1519 1519 1519 1520 1521 1521 1520 1518 1515 1514 1517 1518 1518 1519 1521 1521 1522 1522 1523 1522 1513 1508 1511 1513 1514 1510 1502 1503 1503 1492 1483 1475 1468 1468 1472 1469 1466 1463 1458 1454 1451 1449 1447 1444 1442 1441
1521 1521 1522 1522 1522 1523 1522 1523 1523 1523 1523 1523 1524 1524 1524 1525 1524 1523 1522 1522 1521 1521 1521 1521 1521 1521 1521 1521 1522 1521 1521 1520 1519 1519 1518 1517 1517 1516 1516 1517 1517 1518 1519 1520 1520 1520 1522 1520 1515 1512 1513 1515 1517 1520 1520 1521 1522 1521 1522 1521 1522 1524 1514 1506 1510 1513 1514 1511 1501 1502 1502 1489 1478 1472 1465 1466 1469 1464 1460 1460 1454 1450 1449 1446 1444 1442 1439 1439
1521 1521 1521 1521 1522 1522 1522 1523 1523 1523 1523 1523 1524 1524 1524 1524 1524 1523 1523 1521 1520 1520 1520 1520 1520 1521 1521 1521 1521 1521 1520 1519 1518 1517 1517 1517 1516 1515 1516 1516 1517 1517 1519 1521 1520 1520 1522 1516 1510 1511 1515 1517 1519 1521 1521 1520 1522 1522 1523 1523 1519 1519 1514 1507 1511 1514 1514 1511 1501 1500 1501 1486 1473 1469 1462 1460 1462 1458 1455 1456 1452 1448 1447 1443 1443 1443 1442 1441
1520 1520 1521 1521 1522 1522 1522 1522 1522 1523 1523 1523 1524 1523 1524 1524 1523 1523 1523 1521 1519 1519 1519 1519 1520 1520 1520 1520 1520 1520 1519 1518 1517 1516 1516 1516 1515 1516 1515 1516 1517 1518 1519 1519 1518 1519 1517 1511 1510 1514 1515 1515 1517 1521 1521 1520 1522 1521 1522 1521 1514 1514 1513 1506 1507 1513 1512 1510 1503 1502 1503 1491 1475 1466 1458 1455 1455 1453 1452 1452 1449 1450 1451 1450 1450 1452 1451 1448
1519 1520 1520 1520 1521 1521 1521 1522 1522 1522 1523 1523 1524 1523 1524 1523 1523 1523 1523 1522 1520 1519 1519 1518 1519 1519 1519 1519 1519 1519 1518 1517 1517 1515 1516 1515 1515 1516 1515 1516 1518 1517 1518 1517 1518 1518 1511 1509 1513 1515 1514 1514 1515 1518 1520 1518 1517 1518 1519 1517 1510 1509 1512 1507 1507 1511 1508 1507 1508 1502 1489 1477 1473 1463 1450 1449 1452 1450 1450 1451 1452 1456 1460 1458 1455 1455 1454 1451
1519 1519 1519 1520 1520 1520 1521 1521 1522 1522 1523 1524 1524 1524 1524 1524 1524 1523 1522 1523 1521 1519 1519 1519 1519 1519 1519 1519 1518 1518 1517 1516 1515 1515 1515 1515 1515 1515 1515 1517 1516 1515 1517 1519 1520 1516 1509 1510 1513 1513 1514 1515 1513 1515 1517 1515 1514 1514 1511 1510 1507 1506 1509 1510 1511 1512 1505 1500 1505 1502 1481 1462 1463 1463 1452 1449 1449 1447 1451 1457 1460 1462 1462 1459 1456 1454 1453 1450
1518 1518 1519 1519 1519 1520 1520 1521 1522 1522 1523 1524 1524 1524 1524 1524 1524 1522 1523 1527 1524 1519 1519 1519 1519 1518 1518 1518 1518 1517 1516 1515 1515 1515 1515 1515 1515 1515 1516 1517 1516 1515 1517 1519 1518 1513 1510 1512 1514 1513 1513 1514 1514 1513 1514 1515 1515 1511 1506 1508 1509 1509 1511 1512 1512 1510 1501 1496 1502 1506 1496 1473 1461 1461 1457 1452 1450 1450 1456 1463 1465 1465 1463 1462 1461 1458 1454 1449
1518 1518 1518 1518 1519 1519 1520 1521 1521 1522 1523 1524 1523 1525 1524 1524 1524 1522 1523 1528 1525 1520 1520 1519 1518 1519 1518 1518 1518 1517 1515 1514 1514 1514 1514 1515 1515 1515 1515 1516 1516 1515 1517 1518 1512 1507 1508 1512 1514 1513 1513 1514 1513 1510 1510 1513 1512 1507 1508 1512 1510 1510 1511 1510 1511 1508 1504 1506 1505 1504 1505 1493 1476 1466 1460 1457 1457 1458 1463 1469 1470 1470 1468 1466 1465 1461 1457 1453
1517 1518 1518 1518 1518 1519 1520 1520 1521 1522 1523 1523 1524 1525 1524 1524 1524 1522 1525 1529 1524 1520 1521 1519 1518 1518 1518 1517 1517 1517 1516 1515 1514 1514 1515 1515 1515 1515 1515 1515 1515 1514 1516 1517 1509 1503 1507 1510 1510 1512 1512 1512 1510 1508 1509 1510 1506 1506 1513 1515 1512 1512 1511 1511 1513 1510 1514 1514 1500 1498 1505 1498 1481 1466 1461 1462 1463 1467 1473 1478 1479 1476 1472 1468 1466 1464 1461 1458
1517 1517 1517 1517 1517 1518 1519 1520 1521 1522 1522 1523 1524 1524 1524 1524 1523 1523 1528 1529 1522 1520 1520 1518 1518 1518 1518 1517 1516 1516 1516 1516 1516 1515 1515 1516 1515 1515 1514 1514 1515 1514 1514 1516 1508 1503 1507 1509 1509 1510 1508 1507 1508 1511 1512 1510 1507 1509 1516 1515 1514 1516 1515 1517 1515 1511 1518 1509 1489 1490 1498 1489 1474 1463 1468 1473 1475 1483 1489 1489 1489 1485 1479 1474 1469 1467 1464 1460
1516 1516 1516 1517 1517 1518 1519 1520 1521 1522 1522 1523 1523 1524 1524 1523 1524 1528 1531 1526 1521 1520 1519 1517 1518 1519 1518 1517 1516 1516 1517 1517 1517 1516 1515 1515 1515 1514 1514 1514 1515 1515 1515 1517 1511 1506 1508 1509 1510 1509 1506 1505 1509 1513 1514 1513 1513 1514 1515 1512 1511 1516 1517 1520 1519 1516 1512 1493 1482 1491 1494 1486 1475 1471 1487 1496 1496 1503 1499 1493 1493 1488 1482 1478 1475 1472 1467 1463
1515 1515 1515 1516 1517 1518 1519 1520 1521 1521 1522 1522 1523 1524 1523 1524 1527 1531 1530 1524 1521 1520 1518 1518 1521 1521 1521 1521 1519 1518 1518 1518 1518 1517 1515 1516 1515 1514 1513 1512 1512 1513 1512 1511 1507 1506 1507 1507 1507 1507 1506 1507 1509 1512 1514 1516 1516 1514 1513 1509 1506 1508 1511 1513 1516 1516 1501 1478 1483 1502 1501 1491 1480 1480 1501 1510 1506 1508 1503 1497 1495 1488 1484 1483 1480 1477 1472 1468
1514 1514 1515 1516 1516 1517 1519 1520 1521 1522 1522 1522 1523 1523 1523 1527 1529 1528 1526 1522 1520 1521 1521 1522 1523 1523 1525 1525 1524 1523 1522 1520 1519 1519 1519 1519 1517 1515 1514 1513 1512 1510 1507 1506 1505 1502 1499 1502 1507 1506 1506 1508 1507 1508 1513 1515 1516 1514 1512 1511 1507 1503 1501 1496 1496 1500 1490 1476 1489 1506 1500 1489 1484 1490 1506 1509 1506 1506 1503 1501 1498 1493 1491 1488 1484 1480 1475 1472
1514 1514 1515 1515 1516 1517 1519 1520 1521 1522 1521 1522 1523 1522 1525 1529 1528 1529 1529 1523 1522 1525 1525 1526 1525 1526 1526 1523 1523 1527 1525 1521 1520 1520 1521 1521 1518 1516 1518 1520 1518 1514 1511 1511 1509 1503 1497 1499 1506 1506 1504 1508 1506 1504 1504 1507 1513 1515 1511 1508 1505 1501 1498 1491 1487 1492 1486 1479 1492 1506 1499 1484 1483 1498 1508 1505 1506 1506 1502 1501 1499 1496 1495 1491 1487 1483 1478 1474
1514 1514 1515 1515 1517 1518 1519 1520 1521 1521 1522 1522 1522 1524 1528 1528 1528 1533 1532 1526 1527 1528 1527 1528 1527 1526 1526 1524 1526 1528 1524 1521 1523 1522 1519 1519 1516 1515 1517 1520 1521 1519 1515 1513 1513 1514 1505 1497 1500 1502 1502 1506 1507 1505 1503 1505 1511 1514 1512 1510 1505 1499 1498 1494 1487 1484 1478 1476 1488 1499 1491 1473 1473 1493 1506 1504 1505 1503 1501 1500 1498 1496 1495 1491 1488 1482 1478 1476
1514 1515 1515 1516 1517 1518 1519 1520 1520 1521 1522 1522 1523 1527 1529 1527 1529 1534 1531 1529 1531 1529 1527 1529 1527 1523 1522 1526 1530 1530 1525 1522 1523 1522 1519 1518 1517 1517 1518 1519 1521 1521 1516 1513 1516 1518 1509 1498 1501 1506 1505 1507 1507 1507 1509 1506 1506 1513 1516 1512 1507 1501 1498 1496 1491 1491 1492 1490 1490 1486 1477 1476 1487 1499 1503 1503 1502 1501 1500 1499 1497 1495 1492 1488 1485 1482 1480 1479
1515 1515 1516 1516 1517 1517 1519 1519 1520 1521 1521 1522 1525 1528 1529 1527 1530 1534 1532 1531 1532 1531 1528 1526 1525 1521 1520 1524 1528 1529 1528 1525 1524 1521 1517 1520 1521 1520 1522 1522 1523 1522 1518 1517 1518 1517 1509 1500 1502 1507 1506 1508 1508 1507 1510 1506 1502 1511 1514 1505 1504 1506 1502 1499 1499 1504 1509 1502 1492 1482 1473 1480 1494 1497 1497 1498 1497 1497 1497 1496 1495 1494 1491 1488 1486 1485 1484 1482
1516 1516 1516 1517 1517 1517 1518 1519 1520 1521 1521 1523 1525 1527 1531 1531 1532 1534 1533 1532 1533 1533 1530 1525 1525 1525 1525 1525 1525 1527 1528 1525 1525 1523 1517 1518 1520 1520 1522 1523 1524 1524 1522 1522 1520 1520 1519 1506 1499 1504 1503 1504 1509 1508 1507 1508 1506 1506 1506 1501 1504 1506 1503 1504 1505 1505 1505 1499 1489 1481 1474 1475 1479 1481 1491 1497 1495 1496 1497 1495 1495 1493 1491 1491 1489 1489 1487 1485
1517 1517 1517 1517 1517 1518 1519 1519 1520 1521 1522 1524 1526 1529 1533 1533 1532 1534 1534 1533 1533 1532 1531 1528 1528 1528 1529 1529 1527 1529 1529 1522 1523 1525 1520 1518 1519 1521 1523 1522 1524 1524 1523 1524 1520 1521 1525 1512 1500 1504 1506 1505 1510 1509 1504 1507 1509 1506 1505 1505 1507 1505 1503 1507 1509 1504 1502 1499 1490 1479 1473 1482 1492 1495 1501 1505 1502 1503 1501 1498 1498 1495 1493 1493 1490 1490 1488 1485
1517 1517 1517 1518 1518 1518 1519 1519 1521 1522 1522 1526 1528 1529 1533 1534 1533 1534 1533 1533 1533 1532 1532 1533 1532 1530 1530 1531 1530 1531 1531 1527 1526 1527 1522 1521 1521 1523 1525 1524 1524 1525 1524 1525 1522 1521 1524 1518 1505 1502 1508 1507 1506 1507 1504 1503 1507 1508 1509 1509 1510 1510 1508 1508 1508 1506 1504 1501 1495 1486 1475 1486 1510 1514 1510 1511 1509 1508 1505 1501 1500 1498 1496 1496 1493 1491 1488 1485
1517 1518 1518 1519 1519 1519 1520 1520 1522 1523 1524 1528 1530 1531 1534 1534 1533 1534 1533 1533 1533 1532 1532 1535 1535 1532 1531 1533 1533 1533 1533 1531 1530 1527 1525 1524 1522 1523 1528 1528 1527 1526 1524 1524 1524 1522 1522 1522 1512 1501 1504 1507 1504 1506 1506 1504 1506 1508 1508 1509 1510 1510 1508 1508 1508 1506 1505 1502 1500 1497 1487 1491 1512 1515 1510 1513 1511 1509 1508 1505 1503 1500 1498 1497 1495 1493 1490 1487
1517 1518 1519 1519 1519 1520 1521 1521 1524 1526 1527 1531 1532 1533 1534 1533 1533 1534 1533 1533 1533 1533 1533 1534 1534 1534 1533 1533 1534 1536 1534 1531 1531 1529 1527 1526 1523 1524 1530 1531 1528 1527 1525 1523 1524 1524 1523 1524 1519 1509 1507 1507 1505 1507 1508 1507 1508 1508 1509 1511 1514 1513 1510 1512 1512 1506 1507 1507 1505 1505 1496 1495 1509 1512 1510 1513 1511 1509 1509 1506 1504 1501 1498 1497 1495 1494 1491 1489
1518 1519 1520 1520 1520 1521 1521 1523 1528 1529 1529 1530 1531 1532 1533 1533 1533 1533 1533 1533 1534 1533 1534 1535 1535 1536 1536 1534 1534 1537 1535 1531 1531 1530 1528 1527 1527 1529 1532 1531 1528 1527 1525 1525 1526 1527 1526 1526 1524 1518 1513 1509 1507 1509 1509 1508 1507 1508 1513 1516 1517 1516 1515 1518 1517 1511 1510 1509 1508 1510 1502 1500 1511 1513 1510 1511 1510 1510 1509 1506 1505 1502 1499 1498 1495 1494 1492 1489
1518 1520 1520 1520 1521 1522 1522 1525 1529 1530 1529 1530 1532 1532 1533 1533 1533 1533 1533 1533 1534 1534 1534 1534 1535 1535 1536 1536 1536 1536 1534 1530 1529 1529 1529 1529 1531 1534 1533 1529 1527 1526 1526 1528 1527 1526 1525 1526 1526 1520 1513 1508 1507 1509 1509 1508 1507 1509 1515 1521 1521 1519 1518 1519 1517 1514 1514 1509 1507 1509 1502 1501 1511 1511 1508 1510 1510 1509 1508 1506 1504 1502 1499 1498 1495 1493 1492 1489
1519 1520 1521 1521 1522 1522 1522 1525 1527 1528 1530 1532 1532 1532 1532 1533 1533 1533 1533 1534 1534 1535 1534 1535 1536 1535 1536 1537 1536 1535 1533 1530 1528 1530 1531 1531 1532 1534 1533 1529 1528 1528 1529 1529 1528 1527 1525 1524 1525 1526 1522 1515 1509 1508 1508 1506 1508 1513 1519 1524 1524 1521 1520 1519 1516 1517 1517 1511 1511 1512 1501 1499 1508 1510 1507 1509 1508 1508 1507 1506 1504 1502 1500 1498 1495 1493 1491 1488
1520 1521 1522 1522 1522 1522 1523 1525 1527 1528 1531 1532 1531 1533 1534 1533 1533 1533 1534 1535 1535 1536 1535 1535 1537 1536 1537 1538 1536 1535 1534 1532 1530 1532 1533 1532 1532 1533 1532 1530 1530 1530 1530 1529 1528 1528 1527 1524 1524 1528 1532 1531 1523 1519 1516 1513 1513 1516 1521 1526 1527 1524 1524 1521 1518 1520 1518 1514 1517 1517 1506 1500 1505 1507 1507 1508 1507 1506 1504 1503 1503 1501 1499 1497 1495 1492 1490 1488
1519 1520 1522 1523 1523 1523 1524 1527 1527 1527 1530 1531 1532 1536 1536 1533 1534 1535 1534 1535 1536 1536 1536 1536 1537 1537 1537 1537 1535 1534 1535 1534 1533 1533 1534 1533 1533 1534 1533 1531 1532 1530 1529 1528 1527 1527 1527 1526 1526 1527 1531 1532 1529 1525 1522 1521 1520 1517 1517 1523 1527 1528 1527 1524 1521 1521 1520 1522 1521 1514 1509 1508 1505 1506 1509 1509 1508 1507 1504 1502 1501 1499 1498 1496 1494 1492 1490 1488
1519 1521 1523 1523 1523 1524 1526 1527 1528 1528 1530 1530 1532 1536 1537 1535 1535 1535 1535 1536 1536 1536 1537 1537 1538 1538 1537 1537 1537 1536 1536 1536 1534 1533 1535 1536 1536 1536 1534 1532 1532 1530 1528 1528 1526 1527 1527 1526 1528 1531 1530 1529 1528 1525 1522 1523 1524 1521 1519 1521 1524 1527 1526 1524 1524 1522 1522 1526 1520 1508 1511 1514 1508 1508 1511 1509 1509 1509 1507 1505 1503 1500 1498 1496 1494 1492 1489 1487
1519 1522 1524 1524 1524 1527 1528 1528 1530 1530 1530 1531 1534 1537 1537 1536 1536 1536 1536 1537 1537 1537 1536 1536 1538 1540 1540 1539 1538 1538 1538 1537 1535 1535 1536 1538 1539 1538 1534 1532 1532 1530 1530 1529 1527 1529 1531 1528 1529 1532 1530 1529 1528 1525 1523 1524 1524 1524 1524 1524 1524 1526 1526 1525 1527 1525 1524 1527 1520 1511 1514 1516 1511 1511 1513 1510 1510 1509 1508 1507 1506 1502 1499 1497 1494 1491 1488 1486
1520 1522 1524 1525 1526 1530 1531 1531 1531 1530 1531 1532 1535 1537 1538 1538 1538 1539 1539 1538 1538 1538 1538 1537 1539 1540 1540 1540 1539 1539 1540 1539 1539 1539 1538 1540 1541 1540 1536 1534 1532 1532 1532 1531 1532 1533 1532 1530 1531 1533 1531 1529 1527 1524 1524 1525 1524 1525 1527 1528 1527 1526 1525 1526 1527 1526 1525 1524 1520 1517 1518 1516 1512 1512 1512 1510 1509 1509 1508 1507 1505 1502 1500 1496 1494 1491 1488 1486
1520 1521 1523 1524 1527 1531 1532 1532 1532 1531 1532 1534 1534 1537 1540 1540 1540 1541 1541 1540 1540 1541 1541 1540 1541 1541 1541 1541 1540 1541 1543 1543 1543 1542 1540 1541 1542 1540 1539 1537 1536 1535 1534 1534 1535 1534 1532 1532 1534 1536 1531 1525 1524 1525 1525 1524 1522 1524 1527 1529 1530 1529 1526 1527 1528 1527 1527 1524 1520 1520 1519 1514 1512 1511 1511 1509 1508 1507 1506 1504 1502 1501 1499 1495 1492 1489 1487 1484
1520 1521 1522 1523 1528 1533 1532 1533 1534 1532 1534 1537 1538 1539 1541 1541 1542 1542 1543 1544 1543 1543 1544 1543 1542 1542 1542 1541 1541 1542 1543 1542 1542 1540 1539 1540 1540 1539 1539 1539 1539 1538 1536 1537 1537 1536 1537 1537 1536 1538 1532 1521 1522 1526 1525 1525 1526 1527 1529 1531 1532 1533 1532 1531 1531 1530 1528 1525 1521 1519 1517 1514 1512 1511 1509 1508 1507 1506 1504 1502 1500 1498 1496 1493 1490 1487 1485 1483
1521 1522 1522 1522 1528 1535 1535 1535 1535 1533 1536 1541 1542 1541 1541 1542 1543 1543 1543 1545 1545 1545 1545 1544 1543 1542 1542 1541 1541 1542 1541 1539 1538 1537 1537 1538 1539 1539 1540 1539 1540 1539 1538 1539 1540 1540 1543 1540 1537 1541 1533 1519 1521 1526 1524 1523 1522 1523 1532 1537 1536 1536 1536 1535 1534 1531 1528 1527 1525 1520 1517 1515 1513 1512 1509 1506 1505 1505 1504 1502 1499 1495 1491 1490 1488 1485 1483 1480